Terminal Aerodrome Forecast
Issued by NWS Dodge City, KS

Home | Current Version | Previous Version | Text Only | Print | Product List | Glossary On
Versions: 1 2 3 4 5 6 7 8 9 10 11 12 13 14 15 16 17 18 19 20 21 22 23 24 25 26 27 28 29 30 31 32 33 34 35 36 37 38 39 40
342
FTUS43 KDDC 260520
TAFDDC
TAF
KDDC 260520Z 2606/2706 17014KT P6SM SCT250 WS020/20040KT
     FM261400 22016G24KT P6SM SCT200
     FM262200 25011KT P6SM BKN200
     FM270100 34012KT P6SM BKN110=

USA.gov is the U.S. government's official web portal to all federal, state and local government web resources and services.